Year,Month,Day,Hour,Minute,Value (Times are PST for insolation in W/m^2)
2017,08,22,00,00,0.00
2017,08,22,00,01,0.00
2017,08,22,00,02,0.00
2017,08,22,00,03,0.00
2017,08,22,00,04,0.00
2017,08,22,00,05,0.00
2017,08,22,00,06,0.00
2017,08,22,00,07,0.00
2017,08,22,00,08,0.00
2017,08,22,00,09,0.00
2017,08,22,00,10,0.00
2017,08,22,00,11,0.00
2017,08,22,00,12,0.00
2017,08,22,00,13,0.00
2017,08,22,00,14,0.00
2017,08,22,00,15,0.00
2017,08,22,00,16,0.00
2017,08,22,00,17,0.00
2017,08,22,00,18,0.00
2017,08,22,00,19,0.00
2017,08,22,00,20,0.00
2017,08,22,00,21,0.00
2017,08,22,00,22,0.00
2017,08,22,00,23,0.00
2017,08,22,00,24,0.00
2017,08,22,00,25,0.00
2017,08,22,00,26,0.00
2017,08,22,00,27,0.00
2017,08,22,00,28,0.00
2017,08,22,00,29,0.00
2017,08,22,00,30,0.00
2017,08,22,00,31,0.00
2017,08,22,00,32,0.00
2017,08,22,00,33,0.00
2017,08,22,00,34,0.00
2017,08,22,00,35,0.00
2017,08,22,00,36,0.00
2017,08,22,00,37,0.00
2017,08,22,00,38,0.00
2017,08,22,00,39,0.00
2017,08,22,00,40,0.00
2017,08,22,00,41,0.00
2017,08,22,00,42,0.00
2017,08,22,00,43,0.00
2017,08,22,00,44,0.00
2017,08,22,00,45,0.00
2017,08,22,00,46,0.00
2017,08,22,00,47,0.00
2017,08,22,00,48,0.00
2017,08,22,00,49,0.00
2017,08,22,00,50,0.00
2017,08,22,00,51,0.00
2017,08,22,00,52,0.00
2017,08,22,00,53,0.00
2017,08,22,00,54,0.00
2017,08,22,00,55,0.00
2017,08,22,00,56,0.00
2017,08,22,00,57,0.00
2017,08,22,00,58,0.00
2017,08,22,00,59,0.00
2017,08,22,01,00,0.00
2017,08,22,01,01,0.00
2017,08,22,01,02,0.00
2017,08,22,01,03,0.00
2017,08,22,01,04,0.00
2017,08,22,01,05,0.00
2017,08,22,01,06,0.00
2017,08,22,01,07,0.00
2017,08,22,01,08,0.00
2017,08,22,01,09,0.00
2017,08,22,01,10,0.00
2017,08,22,01,11,0.00
2017,08,22,01,12,0.00
2017,08,22,01,13,0.00
2017,08,22,01,14,0.00
2017,08,22,01,15,0.00
2017,08,22,01,16,0.00
2017,08,22,01,17,0.00
2017,08,22,01,18,0.00
2017,08,22,01,19,0.00
2017,08,22,01,20,0.00
2017,08,22,01,21,0.00
2017,08,22,01,22,0.00
2017,08,22,01,23,0.00
2017,08,22,01,24,0.00
2017,08,22,01,25,0.00
2017,08,22,01,26,0.00
2017,08,22,01,27,0.00
2017,08,22,01,28,0.00
2017,08,22,01,29,0.00
2017,08,22,01,30,0.00
2017,08,22,01,31,0.00
2017,08,22,01,32,0.00
2017,08,22,01,33,0.00
2017,08,22,01,34,0.00
2017,08,22,01,35,0.00
2017,08,22,01,36,0.00
2017,08,22,01,37,0.00
2017,08,22,01,38,0.00
2017,08,22,01,39,0.00
2017,08,22,01,40,0.00
2017,08,22,01,41,0.00
2017,08,22,01,42,0.00
2017,08,22,01,43,0.00
2017,08,22,01,44,0.00
2017,08,22,01,45,0.00
2017,08,22,01,46,0.00
2017,08,22,01,47,0.00
2017,08,22,01,48,0.00
2017,08,22,01,49,0.00
2017,08,22,01,50,0.00
2017,08,22,01,51,0.00
2017,08,22,01,52,0.00
2017,08,22,01,53,0.00
2017,08,22,01,54,0.00
2017,08,22,01,55,0.00
2017,08,22,01,56,0.00
2017,08,22,01,57,0.00
2017,08,22,01,58,0.00
2017,08,22,01,59,0.00
2017,08,22,02,00,0.00
2017,08,22,02,01,0.00
2017,08,22,02,02,0.00
2017,08,22,02,03,0.00
2017,08,22,02,04,0.00
2017,08,22,02,05,0.00
2017,08,22,02,06,0.00
2017,08,22,02,07,0.00
2017,08,22,02,08,0.00
2017,08,22,02,09,0.00
2017,08,22,02,10,0.00
2017,08,22,02,11,0.00
2017,08,22,02,12,0.00
2017,08,22,02,13,0.00
2017,08,22,02,14,0.00
2017,08,22,02,15,0.00
2017,08,22,02,16,0.00
2017,08,22,02,17,0.00
2017,08,22,02,18,0.00
2017,08,22,02,19,0.00
2017,08,22,02,20,0.00
2017,08,22,02,21,0.00
2017,08,22,02,22,0.00
2017,08,22,02,23,0.00
2017,08,22,02,24,0.00
2017,08,22,02,25,0.00
2017,08,22,02,26,0.00
2017,08,22,02,27,0.00
2017,08,22,02,28,0.00
2017,08,22,02,29,0.00
2017,08,22,02,30,0.00
2017,08,22,02,31,0.00
2017,08,22,02,32,0.00
2017,08,22,02,33,0.00
2017,08,22,02,34,0.00
2017,08,22,02,35,0.00
2017,08,22,02,36,0.00
2017,08,22,02,37,0.00
2017,08,22,02,38,0.00
2017,08,22,02,39,0.00
2017,08,22,02,40,0.00
2017,08,22,02,41,0.00
2017,08,22,02,42,0.00
2017,08,22,02,43,0.00
2017,08,22,02,44,0.00
2017,08,22,02,45,0.00
2017,08,22,02,46,0.00
2017,08,22,02,47,0.00
2017,08,22,02,48,0.00
2017,08,22,02,49,0.00
2017,08,22,02,50,0.00
2017,08,22,02,51,0.00
2017,08,22,02,52,0.00
2017,08,22,02,53,0.00
2017,08,22,02,54,0.00
2017,08,22,02,55,0.00
2017,08,22,02,56,0.00
2017,08,22,02,57,0.00
2017,08,22,02,58,0.00
2017,08,22,02,59,0.00
2017,08,22,03,00,0.00
2017,08,22,03,01,0.00
2017,08,22,03,02,0.00
2017,08,22,03,03,0.00
2017,08,22,03,04,0.00
2017,08,22,03,05,0.00
2017,08,22,03,06,0.00
2017,08,22,03,07,0.00
2017,08,22,03,08,0.00
2017,08,22,03,09,0.00
2017,08,22,03,10,0.00
2017,08,22,03,11,0.00
2017,08,22,03,12,0.00
2017,08,22,03,13,0.00
2017,08,22,03,14,0.00
2017,08,22,03,15,0.00
2017,08,22,03,16,0.00
2017,08,22,03,17,0.00
2017,08,22,03,18,0.00
2017,08,22,03,19,0.00
2017,08,22,03,20,0.00
2017,08,22,03,21,0.00
2017,08,22,03,22,0.00
2017,08,22,03,23,0.00
2017,08,22,03,24,0.00
2017,08,22,03,25,0.00
2017,08,22,03,26,0.00
2017,08,22,03,27,0.00
2017,08,22,03,28,0.00
2017,08,22,03,29,0.00
2017,08,22,03,30,0.00
2017,08,22,03,31,0.00
2017,08,22,03,32,0.00
2017,08,22,03,33,0.00
2017,08,22,03,34,0.00
2017,08,22,03,35,0.00
2017,08,22,03,36,0.00
2017,08,22,03,37,0.00
2017,08,22,03,38,0.00
2017,08,22,03,39,0.00
2017,08,22,03,40,0.00
2017,08,22,03,41,0.00
2017,08,22,03,42,0.00
2017,08,22,03,43,0.00
2017,08,22,03,44,0.00
2017,08,22,03,45,0.00
2017,08,22,03,46,0.00
2017,08,22,03,47,0.00
2017,08,22,03,48,0.00
2017,08,22,03,49,0.00
2017,08,22,03,50,0.00
2017,08,22,03,51,0.00
2017,08,22,03,52,0.00
2017,08,22,03,53,0.00
2017,08,22,03,54,0.00
2017,08,22,03,55,0.00
2017,08,22,03,56,0.00
2017,08,22,03,57,0.00
2017,08,22,03,58,0.00
2017,08,22,03,59,0.00
2017,08,22,04,00,0.00
2017,08,22,04,01,0.00
2017,08,22,04,02,0.00
2017,08,22,04,03,0.00
2017,08,22,04,04,0.00
2017,08,22,04,05,0.00
2017,08,22,04,06,0.00
2017,08,22,04,07,0.00
2017,08,22,04,08,0.00
2017,08,22,04,09,0.00
2017,08,22,04,10,0.00
2017,08,22,04,11,0.00
2017,08,22,04,12,0.00
2017,08,22,04,13,0.00
2017,08,22,04,14,0.00
2017,08,22,04,15,0.00
2017,08,22,04,16,0.00
2017,08,22,04,17,0.00
2017,08,22,04,18,0.00
2017,08,22,04,19,0.00
2017,08,22,04,20,0.00
2017,08,22,04,21,0.00
2017,08,22,04,22,0.00
2017,08,22,04,23,0.00
2017,08,22,04,24,0.00
2017,08,22,04,25,0.00
2017,08,22,04,26,0.00
2017,08,22,04,27,0.00
2017,08,22,04,28,0.00
2017,08,22,04,29,0.00
2017,08,22,04,30,0.00
2017,08,22,04,31,0.00
2017,08,22,04,32,0.00
2017,08,22,04,33,0.00
2017,08,22,04,34,0.00
2017,08,22,04,35,0.00
2017,08,22,04,36,0.00
2017,08,22,04,37,0.00
2017,08,22,04,38,0.00
2017,08,22,04,39,0.00
2017,08,22,04,40,0.00
2017,08,22,04,41,0.00
2017,08,22,04,42,0.00
2017,08,22,04,43,0.00
2017,08,22,04,44,0.00
2017,08,22,04,45,0.00
2017,08,22,04,46,0.00
2017,08,22,04,47,0.00
2017,08,22,04,48,0.00
2017,08,22,04,49,0.00
2017,08,22,04,50,0.00
2017,08,22,04,51,0.00
2017,08,22,04,52,0.00
2017,08,22,04,53,0.00
2017,08,22,04,54,0.00
2017,08,22,04,55,0.00
2017,08,22,04,56,0.00
2017,08,22,04,57,0.00
2017,08,22,04,58,0.00
2017,08,22,04,59,0.00
2017,08,22,05,00,0.00
2017,08,22,05,01,0.00
2017,08,22,05,02,0.00
2017,08,22,05,03,0.00
2017,08,22,05,04,0.00
2017,08,22,05,05,0.00
2017,08,22,05,06,0.00
2017,08,22,05,07,0.00
2017,08,22,05,08,0.00
2017,08,22,05,09,0.00
2017,08,22,05,10,0.00
2017,08,22,05,11,0.00
2017,08,22,05,12,0.00
2017,08,22,05,13,0.00
2017,08,22,05,14,0.00
2017,08,22,05,15,0.00
2017,08,22,05,16,0.00
2017,08,22,05,17,0.00
2017,08,22,05,18,0.00
2017,08,22,05,19,0.00
2017,08,22,05,20,0.00
2017,08,22,05,21,0.00
2017,08,22,05,22,0.00
2017,08,22,05,23,0.00
2017,08,22,05,24,0.00
2017,08,22,05,25,0.00
2017,08,22,05,26,0.00
2017,08,22,05,27,0.00
2017,08,22,05,28,0.00
2017,08,22,05,29,0.00
2017,08,22,05,30,0.00
2017,08,22,05,31,0.00
2017,08,22,05,32,0.00
2017,08,22,05,33,0.00
2017,08,22,05,34,0.00
2017,08,22,05,35,0.00
2017,08,22,05,36,0.00
2017,08,22,05,37,0.00
2017,08,22,05,38,0.00
2017,08,22,05,39,0.00
2017,08,22,05,40,0.00
2017,08,22,05,41,0.00
2017,08,22,05,42,0.00
2017,08,22,05,43,0.00
2017,08,22,05,44,0.00
2017,08,22,05,45,0.00
2017,08,22,05,46,0.00
2017,08,22,05,47,0.00
2017,08,22,05,48,0.00
2017,08,22,05,49,0.00
2017,08,22,05,50,0.00
2017,08,22,05,51,0.00
2017,08,22,05,52,0.00
2017,08,22,05,53,0.00
2017,08,22,05,54,0.00
2017,08,22,05,55,0.00
2017,08,22,05,56,0.00
2017,08,22,05,57,0.00
2017,08,22,05,58,0.00
2017,08,22,05,59,0.00
2017,08,22,06,00,0.00
2017,08,22,06,01,0.00
2017,08,22,06,02,0.00
2017,08,22,06,03,0.00
2017,08,22,06,04,0.00
2017,08,22,06,05,0.00
2017,08,22,06,06,0.00
2017,08,22,06,07,0.00
2017,08,22,06,08,0.00
2017,08,22,06,09,0.00
2017,08,22,06,10,0.00
2017,08,22,06,11,0.00
2017,08,22,06,12,0.00
2017,08,22,06,13,0.00
2017,08,22,06,14,0.00
2017,08,22,06,15,0.00
2017,08,22,06,16,0.00
2017,08,22,06,17,0.00
2017,08,22,06,18,0.00
2017,08,22,06,19,0.00
2017,08,22,06,20,0.00
2017,08,22,06,21,0.00
2017,08,22,06,22,0.00
2017,08,22,06,23,0.00
2017,08,22,06,24,4.30
2017,08,22,06,25,5.00
2017,08,22,06,26,5.00
2017,08,22,06,27,5.00
2017,08,22,06,28,5.00
2017,08,22,06,29,5.00
2017,08,22,06,30,5.00
2017,08,22,06,31,6.60
2017,08,22,06,32,7.00
2017,08,22,06,33,7.00
2017,08,22,06,34,7.00
2017,08,22,06,35,7.00
2017,08,22,06,36,8.10
2017,08,22,06,37,9.00
2017,08,22,06,38,9.00
2017,08,22,06,39,9.00
2017,08,22,06,40,9.00
2017,08,22,06,41,9.70
2017,08,22,06,42,11.00
2017,08,22,06,43,11.00
2017,08,22,06,44,11.00
2017,08,22,06,45,11.00
2017,08,22,06,46,11.10
2017,08,22,06,47,12.00
2017,08,22,06,48,12.00
2017,08,22,06,49,12.00
2017,08,22,06,50,12.00
2017,08,22,06,51,12.00
2017,08,22,06,52,12.00
2017,08,22,06,53,13.90
2017,08,22,06,54,14.00
2017,08,22,06,55,14.00
2017,08,22,06,56,14.00
2017,08,22,06,57,14.00
2017,08,22,06,58,15.40
2017,08,22,06,59,16.00
2017,08,22,07,00,16.00
2017,08,22,07,01,16.00
2017,08,22,07,02,16.00
2017,08,22,07,03,17.00
2017,08,22,07,04,18.00
2017,08,22,07,05,18.00
2017,08,22,07,06,18.00
2017,08,22,07,07,18.00
2017,08,22,07,08,18.00
2017,08,22,07,09,18.30
2017,08,22,07,10,19.00
2017,08,22,07,11,19.00
2017,08,22,07,12,19.00
2017,08,22,07,13,19.00
2017,08,22,07,14,21.10
2017,08,22,07,15,22.60
2017,08,22,07,16,22.70
2017,08,22,07,17,33.70
2017,08,22,07,18,44.40
2017,08,22,07,19,36.40
2017,08,22,07,20,40.70
2017,08,22,07,21,73.40
2017,08,22,07,22,97.20
2017,08,22,07,23,105.70
2017,08,22,07,24,108.00
2017,08,22,07,25,111.40
2017,08,22,07,26,113.70
2017,08,22,07,27,115.70
2017,08,22,07,28,118.10
2017,08,22,07,29,121.40
2017,08,22,07,30,124.30
2017,08,22,07,31,127.40
2017,08,22,07,32,130.20
2017,08,22,07,33,133.40
2017,08,22,07,34,134.80
2017,08,22,07,35,137.00
2017,08,22,07,36,139.40
2017,08,22,07,37,142.00
2017,08,22,07,38,145.00
2017,08,22,07,39,147.20
2017,08,22,07,40,148.70
2017,08,22,07,41,150.70
2017,08,22,07,42,153.10
2017,08,22,07,43,155.20
2017,08,22,07,44,156.70
2017,08,22,07,45,158.90
2017,08,22,07,46,161.20
2017,08,22,07,47,162.70
2017,08,22,07,48,166.40
2017,08,22,07,49,169.10
2017,08,22,07,50,172.40
2017,08,22,07,51,174.00
2017,08,22,07,52,176.20
2017,08,22,07,53,181.40
2017,08,22,07,54,184.40
2017,08,22,07,55,187.40
2017,08,22,07,56,190.10
2017,08,22,07,57,193.40
2017,08,22,07,58,195.70
2017,08,22,07,59,198.30
2017,08,22,08,00,201.20
2017,08,22,08,01,204.80
2017,08,22,08,02,206.80
2017,08,22,08,03,211.00
2017,08,22,08,04,213.60
2017,08,22,08,05,216.70
2017,08,22,08,06,218.90
2017,08,22,08,07,220.60
2017,08,22,08,08,223.80
2017,08,22,08,09,228.30
2017,08,22,08,10,232.00
2017,08,22,08,11,234.60
2017,08,22,08,12,237.70
2017,08,22,08,13,239.90
2017,08,22,08,14,242.10
2017,08,22,08,15,245.20
2017,08,22,08,16,247.70
2017,08,22,08,17,250.10
2017,08,22,08,18,253.40
2017,08,22,08,19,255.70
2017,08,22,08,20,258.40
2017,08,22,08,21,260.00
2017,08,22,08,22,263.00
2017,08,22,08,23,264.90
2017,08,22,08,24,269.10
2017,08,22,08,25,271.20
2017,08,22,08,26,273.30
2017,08,22,08,27,277.00
2017,08,22,08,28,279.80
2017,08,22,08,29,282.50
2017,08,22,08,30,284.70
2017,08,22,08,31,287.00
2017,08,22,08,32,288.90
2017,08,22,08,33,293.00
2017,08,22,08,34,295.00
2017,08,22,08,35,297.40
2017,08,22,08,36,300.40
2017,08,22,08,37,301.90
2017,08,22,08,38,306.00
2017,08,22,08,39,308.20
2017,08,22,08,40,310.30
2017,08,22,08,41,315.40
2017,08,22,08,42,322.10
2017,08,22,08,43,328.50
2017,08,22,08,44,333.40
2017,08,22,08,45,335.90
2017,08,22,08,46,336.40
2017,08,22,08,47,337.30
2017,08,22,08,48,337.00
2017,08,22,08,49,338.60
2017,08,22,08,50,340.40
2017,08,22,08,51,342.70
2017,08,22,08,52,346.30
2017,08,22,08,53,352.70
2017,08,22,08,54,355.70
2017,08,22,08,55,357.00
2017,08,22,08,56,358.80
2017,08,22,08,57,360.00
2017,08,22,08,58,361.60
2017,08,22,08,59,362.10
2017,08,22,09,00,364.00
2017,08,22,09,01,364.70
2017,08,22,09,02,367.30
2017,08,22,09,03,371.40
2017,08,22,09,04,375.20
2017,08,22,09,05,377.70
2017,08,22,09,06,381.30
2017,08,22,09,07,385.70
2017,08,22,09,08,390.00
2017,08,22,09,09,396.40
2017,08,22,09,10,404.30
2017,08,22,09,11,415.40
2017,08,22,09,12,418.00
2017,08,22,09,13,448.20
2017,08,22,09,14,468.20
2017,08,22,09,15,481.50
2017,08,22,09,16,474.60
2017,08,22,09,17,460.80
2017,08,22,09,18,462.00
2017,08,22,09,19,486.40
2017,08,22,09,20,498.70
2017,08,22,09,21,499.00
2017,08,22,09,22,499.00
2017,08,22,09,23,499.00
2017,08,22,09,24,499.00
2017,08,22,09,25,496.90
2017,08,22,09,26,496.00
2017,08,22,09,27,493.90
2017,08,22,09,28,491.60
2017,08,22,09,29,488.90
2017,08,22,09,30,485.10
2017,08,22,09,31,481.20
2017,08,22,09,32,478.60
2017,08,22,09,33,476.30
2017,08,22,09,34,476.00
2017,08,22,09,35,476.00
2017,08,22,09,36,476.00
2017,08,22,09,37,476.90
2017,08,22,09,38,480.40
2017,08,22,09,39,484.10
2017,08,22,09,40,471.10
2017,08,22,09,41,480.20
2017,08,22,09,42,435.20
2017,08,22,09,43,464.70
2017,08,22,09,44,480.90
2017,08,22,09,45,476.70
2017,08,22,09,46,481.40
2017,08,22,09,47,485.00
2017,08,22,09,48,488.00
2017,08,22,09,49,501.70
2017,08,22,09,50,504.00
2017,08,22,09,51,509.30
2017,08,22,09,52,513.20
2017,08,22,09,53,517.60
2017,08,22,09,54,527.70
2017,08,22,09,55,531.20
2017,08,22,09,56,498.30
2017,08,22,09,57,505.30
2017,08,22,09,58,523.10
2017,08,22,09,59,520.80
2017,08,22,10,00,508.00
2017,08,22,10,01,475.70
2017,08,22,10,02,549.20
2017,08,22,10,03,549.70
2017,08,22,10,04,531.00
2017,08,22,10,05,566.10
2017,08,22,10,06,623.60
2017,08,22,10,07,577.50
2017,08,22,10,08,604.30
2017,08,22,10,09,635.50
2017,08,22,10,10,597.60
2017,08,22,10,11,622.00
2017,08,22,10,12,622.00
2017,08,22,10,13,622.00
2017,08,22,10,14,622.00
2017,08,22,10,15,611.80
2017,08,22,10,16,602.90
2017,08,22,10,17,596.40
2017,08,22,10,18,589.60
2017,08,22,10,19,587.90
2017,08,22,10,20,590.20
2017,08,22,10,21,591.70
2017,08,22,10,22,593.60
2017,08,22,10,23,598.10
2017,08,22,10,24,602.10
2017,08,22,10,25,608.00
2017,08,22,10,26,614.20
2017,08,22,10,27,617.00
2017,08,22,10,28,615.60
2017,08,22,10,29,615.00
2017,08,22,10,30,612.20
2017,08,22,10,31,612.30
2017,08,22,10,32,610.00
2017,08,22,10,33,610.00
2017,08,22,10,34,610.00
2017,08,22,10,35,607.20
2017,08,22,10,36,606.00
2017,08,22,10,37,606.20
2017,08,22,10,38,608.00
2017,08,22,10,39,609.30
2017,08,22,10,40,614.40
2017,08,22,10,41,618.20
2017,08,22,10,42,621.10
2017,08,22,10,43,627.10
2017,08,22,10,44,634.70
2017,08,22,10,45,635.20
2017,08,22,10,46,638.30
2017,08,22,10,47,645.70
2017,08,22,10,48,652.00
2017,08,22,10,49,657.50
2017,08,22,10,50,656.40
2017,08,22,10,51,661.20
2017,08,22,10,52,666.40
2017,08,22,10,53,668.00
2017,08,22,10,54,669.30
2017,08,22,10,55,670.40
2017,08,22,10,56,676.30
2017,08,22,10,57,674.10
2017,08,22,10,58,680.20
2017,08,22,10,59,688.20
2017,08,22,11,00,697.30
2017,08,22,11,01,702.40
2017,08,22,11,02,708.00
2017,08,22,11,03,714.90
2017,08,22,11,04,721.30
2017,08,22,11,05,728.30
2017,08,22,11,06,737.00
2017,08,22,11,07,748.70
2017,08,22,11,08,765.60
2017,08,22,11,09,775.00
2017,08,22,11,10,775.00
2017,08,22,11,11,442.80
2017,08,22,11,12,405.60
2017,08,22,11,13,570.00
2017,08,22,11,14,570.00
2017,08,22,11,15,647.80
2017,08,22,11,16,745.00
2017,08,22,11,17,745.00
2017,08,22,11,18,745.00
2017,08,22,11,19,745.00
2017,08,22,11,20,702.80
2017,08,22,11,21,555.00
2017,08,22,11,22,666.10
2017,08,22,11,23,791.40
2017,08,22,11,24,770.00
2017,08,22,11,25,751.40
2017,08,22,11,26,737.00
2017,08,22,11,27,731.00
2017,08,22,11,28,733.00
2017,08,22,11,29,743.20
2017,08,22,11,30,759.90
2017,08,22,11,31,780.10
2017,08,22,11,32,801.50
2017,08,22,11,33,826.60
2017,08,22,11,34,848.20
2017,08,22,11,35,868.50
2017,08,22,11,36,885.20
2017,08,22,11,37,900.80
2017,08,22,11,38,916.90
2017,08,22,11,39,930.00
2017,08,22,11,40,940.10
2017,08,22,11,41,951.00
2017,08,22,11,42,958.00
2017,08,22,11,43,961.40
2017,08,22,11,44,981.60
2017,08,22,11,45,993.00
2017,08,22,11,46,876.30
2017,08,22,11,47,829.90
2017,08,22,11,48,525.70
2017,08,22,11,49,557.70
2017,08,22,11,50,545.00
2017,08,22,11,51,545.00
2017,08,22,11,52,399.30
2017,08,22,11,53,329.00
2017,08,22,11,54,325.40
2017,08,22,11,55,330.30
2017,08,22,11,56,337.00
2017,08,22,11,57,339.00
2017,08,22,11,58,338.40
2017,08,22,11,59,336.60
2017,08,22,12,00,336.00
2017,08,22,12,01,340.40
2017,08,22,12,02,359.00
2017,08,22,12,03,359.00
2017,08,22,12,04,478.60
2017,08,22,12,05,628.00
2017,08,22,12,06,463.30
2017,08,22,12,07,411.90
2017,08,22,12,08,421.30
2017,08,22,12,09,386.90
2017,08,22,12,10,373.10
2017,08,22,12,11,395.90
2017,08,22,12,12,413.00
2017,08,22,12,13,706.30
2017,08,22,12,14,841.40
2017,08,22,12,15,831.80
2017,08,22,12,16,694.00
2017,08,22,12,17,638.00
2017,08,22,12,18,732.20
2017,08,22,12,19,837.00
2017,08,22,12,20,833.00
2017,08,22,12,21,833.00
2017,08,22,12,22,561.30
2017,08,22,12,23,501.40
2017,08,22,12,24,523.30
2017,08,22,12,25,556.30
2017,08,22,12,26,543.30
2017,08,22,12,27,502.70
2017,08,22,12,28,491.30
2017,08,22,12,29,544.90
2017,08,22,12,30,547.00
2017,08,22,12,31,574.30
2017,08,22,12,32,629.00
2017,08,22,12,33,629.00
2017,08,22,12,34,543.90
2017,08,22,12,35,442.00
2017,08,22,12,36,494.20
2017,08,22,12,37,416.40
2017,08,22,12,38,388.00
2017,08,22,12,39,374.20
2017,08,22,12,40,363.10
2017,08,22,12,41,357.90
2017,08,22,12,42,357.00
2017,08,22,12,43,354.90
2017,08,22,12,44,353.40
2017,08,22,12,45,358.00
2017,08,22,12,46,366.20
2017,08,22,12,47,369.00
2017,08,22,12,48,369.00
2017,08,22,12,49,360.90
2017,08,22,12,50,358.50
2017,08,22,12,51,351.30
2017,08,22,12,52,345.00
2017,08,22,12,53,335.90
2017,08,22,12,54,330.90
2017,08,22,12,55,326.50
2017,08,22,12,56,325.00
2017,08,22,12,57,326.90
2017,08,22,12,58,327.60
2017,08,22,12,59,332.00
2017,08,22,13,00,338.20
2017,08,22,13,01,348.10
2017,08,22,13,02,353.00
2017,08,22,13,03,381.50
2017,08,22,13,04,398.60
2017,08,22,13,05,405.70
2017,08,22,13,06,430.70
2017,08,22,13,07,418.10
2017,08,22,13,08,394.50
2017,08,22,13,09,385.10
2017,08,22,13,10,383.00
2017,08,22,13,11,402.30
2017,08,22,13,12,403.00
2017,08,22,13,13,424.00
2017,08,22,13,14,508.40
2017,08,22,13,15,495.30
2017,08,22,13,16,443.70
2017,08,22,13,17,451.80
2017,08,22,13,18,474.40
2017,08,22,13,19,435.20
2017,08,22,13,20,409.70
2017,08,22,13,21,400.00
2017,08,22,13,22,392.70
2017,08,22,13,23,418.70
2017,08,22,13,24,433.70
2017,08,22,13,25,445.10
2017,08,22,13,26,440.70
2017,08,22,13,27,398.00
2017,08,22,13,28,392.00
2017,08,22,13,29,392.00
2017,08,22,13,30,392.00
2017,08,22,13,31,392.00
2017,08,22,13,32,412.30
2017,08,22,13,33,666.00
2017,08,22,13,34,666.00
2017,08,22,13,35,632.30
2017,08,22,13,36,596.00
2017,08,22,13,37,596.00
2017,08,22,13,38,513.40
2017,08,22,13,39,499.00
2017,08,22,13,40,472.10
2017,08,22,13,41,373.90
2017,08,22,13,42,360.30
2017,08,22,13,43,353.00
2017,08,22,13,44,375.20
2017,08,22,13,45,392.40
2017,08,22,13,46,394.00
2017,08,22,13,47,433.10
2017,08,22,13,48,570.00
2017,08,22,13,49,514.60
2017,08,22,13,50,430.10
2017,08,22,13,51,375.70
2017,08,22,13,52,365.10
2017,08,22,13,53,367.30
2017,08,22,13,54,386.90
2017,08,22,13,55,418.00
2017,08,22,13,56,418.00
2017,08,22,13,57,397.80
2017,08,22,13,58,383.00
2017,08,22,13,59,390.30
2017,08,22,14,00,377.10
2017,08,22,14,01,357.90
2017,08,22,14,02,350.30
2017,08,22,14,03,342.30
2017,08,22,14,04,342.60
2017,08,22,14,05,364.70
2017,08,22,14,06,430.00
2017,08,22,14,07,420.90
2017,08,22,14,08,420.00
2017,08,22,14,09,420.00
2017,08,22,14,10,718.00
2017,08,22,14,11,1075.20
2017,08,22,14,12,1100.00
2017,08,22,14,13,1014.80
2017,08,22,14,14,1000.00
2017,08,22,14,15,1000.00
2017,08,22,14,16,1000.00
2017,08,22,14,17,1000.00
2017,08,22,14,18,1000.00
2017,08,22,14,19,1000.00
2017,08,22,14,20,1000.00
2017,08,22,14,21,991.80
2017,08,22,14,22,1009.00
2017,08,22,14,23,1009.00
2017,08,22,14,24,1009.00
2017,08,22,14,25,628.00
2017,08,22,14,26,375.90
2017,08,22,14,27,386.50
2017,08,22,14,28,398.00
2017,08,22,14,29,444.60
2017,08,22,14,30,484.30
2017,08,22,14,31,451.20
2017,08,22,14,32,468.10
2017,08,22,14,33,411.90
2017,08,22,14,34,368.30
2017,08,22,14,35,364.00
2017,08,22,14,36,364.00
2017,08,22,14,37,364.00
2017,08,22,14,38,644.40
2017,08,22,14,39,962.40
2017,08,22,14,40,940.00
2017,08,22,14,41,903.30
2017,08,22,14,42,971.10
2017,08,22,14,43,974.00
2017,08,22,14,44,974.00
2017,08,22,14,45,954.40
2017,08,22,14,46,946.60
2017,08,22,14,47,958.00
2017,08,22,14,48,958.00
2017,08,22,14,49,958.00
2017,08,22,14,50,935.60
2017,08,22,14,51,830.00
2017,08,22,14,52,812.90
2017,08,22,14,53,809.00
2017,08,22,14,54,824.50
2017,08,22,14,55,831.00
2017,08,22,14,56,836.30
2017,08,22,14,57,902.00
2017,08,22,14,58,902.00
2017,08,22,14,59,893.10
2017,08,22,15,00,877.30
2017,08,22,15,01,862.70
2017,08,22,15,02,852.00
2017,08,22,15,03,841.30
2017,08,22,15,04,833.00
2017,08,22,15,05,830.00
2017,08,22,15,06,824.00
2017,08,22,15,07,824.00
2017,08,22,15,08,824.00
2017,08,22,15,09,824.00
2017,08,22,15,10,839.90
2017,08,22,15,11,819.10
2017,08,22,15,12,893.00
2017,08,22,15,13,812.60
2017,08,22,15,14,726.00
2017,08,22,15,15,726.00
2017,08,22,15,16,295.00
2017,08,22,15,17,202.70
2017,08,22,15,18,199.30
2017,08,22,15,19,194.70
2017,08,22,15,20,212.20
2017,08,22,15,21,233.70
2017,08,22,15,22,255.00
2017,08,22,15,23,269.90
2017,08,22,15,24,265.40
2017,08,22,15,25,246.10
2017,08,22,15,26,223.70
2017,08,22,15,27,210.20
2017,08,22,15,28,207.00
2017,08,22,15,29,209.80
2017,08,22,15,30,218.30
2017,08,22,15,31,231.60
2017,08,22,15,32,231.60
2017,08,22,15,33,224.70
2017,08,22,15,34,209.60
2017,08,22,15,35,199.90
2017,08,22,15,36,195.60
2017,08,22,15,37,192.40
2017,08,22,15,38,185.00
2017,08,22,15,39,184.60
2017,08,22,15,40,193.30
2017,08,22,15,41,204.30
2017,08,22,15,42,207.80
2017,08,22,15,43,202.10
2017,08,22,15,44,193.20
2017,08,22,15,45,182.90
2017,08,22,15,46,179.00
2017,08,22,15,47,179.70
2017,08,22,15,48,182.90
2017,08,22,15,49,188.00
2017,08,22,15,50,192.10
2017,08,22,15,51,198.10
2017,08,22,15,52,207.20
2017,08,22,15,53,219.90
2017,08,22,15,54,228.00
2017,08,22,15,55,245.10
2017,08,22,15,56,246.20
2017,08,22,15,57,225.70
2017,08,22,15,58,221.40
2017,08,22,15,59,216.50
2017,08,22,16,00,234.00
2017,08,22,16,01,234.00
2017,08,22,16,02,231.60
2017,08,22,16,03,225.40
2017,08,22,16,04,229.70
2017,08,22,16,05,218.40
2017,08,22,16,06,211.40
2017,08,22,16,07,213.70
2017,08,22,16,08,214.30
2017,08,22,16,09,205.70
2017,08,22,16,10,189.90
2017,08,22,16,11,166.00
2017,08,22,16,12,143.90
2017,08,22,16,13,127.50
2017,08,22,16,14,118.90
2017,08,22,16,15,111.00
2017,08,22,16,16,101.90
2017,08,22,16,17,95.20
2017,08,22,16,18,91.60
2017,08,22,16,19,90.20
2017,08,22,16,20,88.10
2017,08,22,16,21,88.40
2017,08,22,16,22,90.30
2017,08,22,16,23,92.00
2017,08,22,16,24,93.00
2017,08,22,16,25,94.40
2017,08,22,16,26,96.70
2017,08,22,16,27,97.10
2017,08,22,16,28,98.00
2017,08,22,16,29,98.70
2017,08,22,16,30,101.00
2017,08,22,16,31,103.20
2017,08,22,16,32,104.70
2017,08,22,16,33,102.40
2017,08,22,16,34,99.90
2017,08,22,16,35,98.00
2017,08,22,16,36,99.30
2017,08,22,16,37,107.30
2017,08,22,16,38,137.80
2017,08,22,16,39,156.00
2017,08,22,16,40,305.10
2017,08,22,16,41,318.80
2017,08,22,16,42,318.40
2017,08,22,16,43,299.30
2017,08,22,16,44,240.20
2017,08,22,16,45,206.70
2017,08,22,16,46,192.70
2017,08,22,16,47,184.30
2017,08,22,16,48,179.80
2017,08,22,16,49,200.90
2017,08,22,16,50,204.00
2017,08,22,16,51,204.00
2017,08,22,16,52,204.00
2017,08,22,16,53,208.90
2017,08,22,16,54,221.20
2017,08,22,16,55,304.90
2017,08,22,16,56,308.00
2017,08,22,16,57,286.70
2017,08,22,16,58,248.90
2017,08,22,16,59,303.00
2017,08,22,17,00,345.90
2017,08,22,17,01,337.00
2017,08,22,17,02,249.10
2017,08,22,17,03,233.60
2017,08,22,17,04,202.70
2017,08,22,17,05,203.30
2017,08,22,17,06,157.40
2017,08,22,17,07,125.10
2017,08,22,17,08,114.50
2017,08,22,17,09,105.10
2017,08,22,17,10,101.60
2017,08,22,17,11,100.00